sat.trackr.live / text

‹ back to catalog

STARLINK-3346

NORAD 50821 · 2022-001U

PAYLOAD ACTIVE UNKNOWN

§ Identity

Operator
Country
US
Launch date
2022-01-06
Launch site
AFETR
Launch vehicle
Mass (kg)
RCS (m²)

Purposes: comms

External: N2YO · Heavens-Above · Gunter

§ Orbital elements

Epoch: 2026-05-24T20:01:52.714560Z

Period
95.44 min
Inclination
53.2147°
Eccentricity
0.0001672
Mean motion
15.08833540 rev/d
Perigee alt
538.6 km
Apogee alt
540.9 km
Semi-major
6,917.9 km
B*
5.2592e-6
RAAN
187.1744°
Arg perigee
89.4701°
Mean anomaly
270.6482°
Rev number
24,190

§ Raw data

STARLINK-33461 50821U 22001U   26144.83463790 -.00000204  00000+0  52592-5 0  99922 50821  53.2147 187.1744 0001672  89.4701 270.6482 15.08833540241909

JSON: /api/v1/satellites/50821 · /tle

For live sub-satellite position, see the globe view (requires WebGL).

§ Visibility from observer

Set your observer location to see the next 7 days of passes ≥ 10°. The values pass through the URL so the page stays shareable.

No JS? Fill the form by hand. The geolocation button needs JavaScript.